Year,Month,Day,Hour,Minute,Value (Times are PST for temperature in C)
2012,05,19,00,00,7.40
2012,05,19,00,01,7.40
2012,05,19,00,02,7.40
2012,05,19,00,03,7.40
2012,05,19,00,04,7.30
2012,05,19,00,05,7.30
2012,05,19,00,06,7.30
2012,05,19,00,07,7.30
2012,05,19,00,08,7.30
2012,05,19,00,09,7.30
2012,05,19,00,10,7.30
2012,05,19,00,12,7.30
2012,05,19,00,13,7.30
2012,05,19,00,14,7.20
2012,05,19,00,15,7.20
2012,05,19,00,16,7.20
2012,05,19,00,17,7.20
2012,05,19,00,18,7.20
2012,05,19,00,19,7.20
2012,05,19,00,20,7.20
2012,05,19,00,21,7.20
2012,05,19,00,22,7.20
2012,05,19,00,23,7.20
2012,05,19,00,24,7.20
2012,05,19,00,25,7.20
2012,05,19,00,26,7.20
2012,05,19,00,27,7.20
2012,05,19,00,28,7.20
2012,05,19,00,29,7.20
2012,05,19,00,30,7.20
2012,05,19,00,31,7.20
2012,05,19,00,32,7.20
2012,05,19,00,33,7.10
2012,05,19,00,34,7.10
2012,05,19,00,35,7.10
2012,05,19,00,36,7.10
2012,05,19,00,37,7.10
2012,05,19,00,38,7.10
2012,05,19,00,39,7.10
2012,05,19,00,41,7.00
2012,05,19,00,42,7.00
2012,05,19,00,43,6.90
2012,05,19,00,44,6.90
2012,05,19,00,45,6.90
2012,05,19,00,46,6.90
2012,05,19,00,47,6.90
2012,05,19,00,48,6.90
2012,05,19,00,49,6.90
2012,05,19,00,51,6.90
2012,05,19,00,52,6.90
2012,05,19,00,54,6.80
2012,05,19,00,56,6.80
2012,05,19,00,57,6.80
2012,05,19,00,58,6.80
2012,05,19,00,59,6.80
2012,05,19,01,01,6.80
2012,05,19,01,02,6.80
2012,05,19,01,03,6.80
2012,05,19,01,04,6.80
2012,05,19,01,05,6.80
2012,05,19,01,06,6.70
2012,05,19,01,07,6.70
2012,05,19,01,08,6.70
2012,05,19,01,09,6.70
2012,05,19,01,10,6.70
2012,05,19,01,11,6.70
2012,05,19,01,12,6.70
2012,05,19,01,13,6.70
2012,05,19,01,15,6.70
2012,05,19,01,16,6.70
2012,05,19,01,17,6.70
2012,05,19,01,18,6.70
2012,05,19,01,19,6.70
2012,05,19,01,21,6.70
2012,05,19,01,22,6.70
2012,05,19,01,23,6.60
2012,05,19,01,24,6.70
2012,05,19,01,25,6.60
2012,05,19,01,26,6.60
2012,05,19,01,27,6.60
2012,05,19,01,28,6.60
2012,05,19,01,29,6.60
2012,05,19,01,30,6.60
2012,05,19,01,31,6.60
2012,05,19,01,32,6.60
2012,05,19,01,33,6.50
2012,05,19,01,34,6.50
2012,05,19,01,36,6.40
2012,05,19,01,37,6.40
2012,05,19,01,38,6.40
2012,05,19,01,40,6.40
2012,05,19,01,41,6.40
2012,05,19,01,42,6.40
2012,05,19,01,43,6.40
2012,05,19,01,45,6.30
2012,05,19,01,46,6.30
2012,05,19,01,47,6.30
2012,05,19,01,48,6.30
2012,05,19,01,50,6.30
2012,05,19,01,51,6.30
2012,05,19,01,52,6.20
2012,05,19,01,53,6.20
2012,05,19,01,54,6.20
2012,05,19,01,56,6.20
2012,05,19,01,57,6.20
2012,05,19,01,58,6.10
2012,05,19,01,59,6.10
2012,05,19,02,00,6.10
2012,05,19,02,01,6.10
2012,05,19,02,02,6.10
2012,05,19,02,03,6.10
2012,05,19,02,04,6.00
2012,05,19,02,05,6.00
2012,05,19,02,06,5.90
2012,05,19,02,07,5.90
2012,05,19,02,08,5.90
2012,05,19,02,09,5.90
2012,05,19,02,10,5.90
2012,05,19,02,11,5.90
2012,05,19,02,12,5.90
2012,05,19,02,13,5.90
2012,05,19,02,14,5.80
2012,05,19,02,15,5.80
2012,05,19,02,16,5.80
2012,05,19,02,17,5.80
2012,05,19,02,18,5.80
2012,05,19,02,19,5.80
2012,05,19,02,20,5.70
2012,05,19,02,21,5.70
2012,05,19,02,22,5.70
2012,05,19,02,23,5.70
2012,05,19,02,24,5.70
2012,05,19,02,25,5.60
2012,05,19,02,26,5.60
2012,05,19,02,27,5.60
2012,05,19,02,28,5.60
2012,05,19,02,29,5.60
2012,05,19,02,30,5.60
2012,05,19,02,31,5.60
2012,05,19,02,32,5.60
2012,05,19,02,33,5.60
2012,05,19,02,34,5.50
2012,05,19,02,35,5.50
2012,05,19,02,36,5.50
2012,05,19,02,37,5.50
2012,05,19,02,38,5.40
2012,05,19,02,39,5.40
2012,05,19,02,40,5.40
2012,05,19,02,41,5.40
2012,05,19,02,42,5.40
2012,05,19,02,43,5.40
2012,05,19,02,44,5.40
2012,05,19,02,45,5.30
2012,05,19,02,46,5.30
2012,05,19,02,47,5.30
2012,05,19,02,48,5.30
2012,05,19,02,49,5.30
2012,05,19,02,50,5.20
2012,05,19,02,51,5.20
2012,05,19,02,52,5.20
2012,05,19,02,53,5.20
2012,05,19,02,54,5.20
2012,05,19,02,55,5.20
2012,05,19,02,56,5.10
2012,05,19,02,57,5.10
2012,05,19,02,58,5.10
2012,05,19,02,59,5.10
2012,05,19,03,00,5.10
2012,05,19,03,01,5.00
2012,05,19,03,02,5.00
2012,05,19,03,03,5.00
2012,05,19,03,04,4.90
2012,05,19,03,05,4.90
2012,05,19,03,06,4.90
2012,05,19,03,07,4.90
2012,05,19,03,08,4.90
2012,05,19,03,09,4.90
2012,05,19,03,10,4.80
2012,05,19,03,11,4.80
2012,05,19,03,12,4.80
2012,05,19,03,13,4.80
2012,05,19,03,15,4.80
2012,05,19,03,16,4.80
2012,05,19,03,18,4.80
2012,05,19,03,19,4.80
2012,05,19,03,20,4.80
2012,05,19,03,21,4.80
2012,05,19,03,22,4.70
2012,05,19,03,23,4.80
2012,05,19,03,24,4.70
2012,05,19,03,25,4.70
2012,05,19,03,26,4.70
2012,05,19,03,27,4.70
2012,05,19,03,28,4.70
2012,05,19,03,29,4.70
2012,05,19,03,30,4.70
2012,05,19,03,31,4.70
2012,05,19,03,32,4.70
2012,05,19,03,33,4.70
2012,05,19,03,34,4.70
2012,05,19,03,35,4.70
2012,05,19,03,36,4.70
2012,05,19,03,37,4.70
2012,05,19,03,38,4.70
2012,05,19,03,40,4.60
2012,05,19,03,41,4.60
2012,05,19,03,42,4.60
2012,05,19,03,43,4.60
2012,05,19,03,45,4.60
2012,05,19,03,46,4.50
2012,05,19,03,47,4.50
2012,05,19,03,48,4.50
2012,05,19,03,49,4.50
2012,05,19,03,50,4.40
2012,05,19,03,51,4.40
2012,05,19,03,52,4.40
2012,05,19,03,53,4.40
2012,05,19,03,54,4.40
2012,05,19,03,55,4.40
2012,05,19,03,56,4.40
2012,05,19,03,57,4.30
2012,05,19,03,58,4.30
2012,05,19,04,00,4.30
2012,05,19,04,01,4.30
2012,05,19,04,02,4.30
2012,05,19,04,03,4.30
2012,05,19,04,04,4.30
2012,05,19,04,05,4.30
2012,05,19,04,06,4.30
2012,05,19,04,07,4.30
2012,05,19,04,08,4.30
2012,05,19,04,09,4.30
2012,05,19,04,10,4.30
2012,05,19,04,11,4.30
2012,05,19,04,12,4.30
2012,05,19,04,13,4.30
2012,05,19,04,14,4.30
2012,05,19,04,15,4.20
2012,05,19,04,16,4.20
2012,05,19,04,17,4.20
2012,05,19,04,18,4.20
2012,05,19,04,20,4.20
2012,05,19,04,21,4.20
2012,05,19,04,22,4.20
2012,05,19,04,23,4.20
2012,05,19,04,24,4.20
2012,05,19,04,25,4.20
2012,05,19,04,26,4.10
2012,05,19,04,27,4.10
2012,05,19,04,28,4.10
2012,05,19,04,30,4.10
2012,05,19,04,31,4.10
2012,05,19,04,32,4.10
2012,05,19,04,33,4.00
2012,05,19,04,34,4.00
2012,05,19,04,35,4.00
2012,05,19,04,36,4.00
2012,05,19,04,37,3.90
2012,05,19,04,38,3.90
2012,05,19,04,39,3.90
2012,05,19,04,40,3.90
2012,05,19,04,41,3.90
2012,05,19,04,42,3.90
2012,05,19,04,44,3.90
2012,05,19,04,46,3.90
2012,05,19,04,48,3.80
2012,05,19,04,50,3.80
2012,05,19,04,51,3.80
2012,05,19,04,53,3.80
2012,05,19,04,55,3.80
2012,05,19,04,57,3.80
2012,05,19,04,58,3.80
2012,05,19,05,00,3.80
2012,05,19,05,02,3.80
2012,05,19,05,03,3.80
2012,05,19,05,05,3.80
2012,05,19,05,06,3.70
2012,05,19,05,08,3.70
2012,05,19,05,09,3.70
2012,05,19,05,11,3.70
2012,05,19,05,12,3.70
2012,05,19,05,14,3.70
2012,05,19,05,16,3.70
2012,05,19,05,17,3.70
2012,05,19,05,19,3.70
2012,05,19,05,20,3.70
2012,05,19,05,22,3.70
2012,05,19,05,24,3.70
2012,05,19,05,25,3.70
2012,05,19,05,27,3.70
2012,05,19,05,29,3.60
2012,05,19,05,30,3.60
2012,05,19,05,32,3.60
2012,05,19,05,34,3.60
2012,05,19,05,36,3.60
2012,05,19,05,38,3.50
2012,05,19,05,40,3.50
2012,05,19,05,42,3.50
2012,05,19,05,43,3.50
2012,05,19,05,45,3.40
2012,05,19,05,46,3.50
2012,05,19,05,48,3.40
2012,05,19,05,50,3.40
2012,05,19,05,52,3.40
2012,05,19,05,53,3.40
2012,05,19,05,55,3.40
2012,05,19,05,57,3.40
2012,05,19,05,59,3.40
2012,05,19,06,00,3.40
2012,05,19,06,01,3.40
2012,05,19,06,03,3.30
2012,05,19,06,05,3.30
2012,05,19,06,07,3.30
2012,05,19,06,08,3.30
2012,05,19,06,10,3.30
2012,05,19,06,12,3.40
2012,05,19,06,13,3.40
2012,05,19,06,15,3.40
2012,05,19,06,17,3.40
2012,05,19,06,18,3.50
2012,05,19,06,20,3.50
2012,05,19,06,21,3.50
2012,05,19,06,23,3.50
2012,05,19,06,25,3.60
2012,05,19,06,27,3.60
2012,05,19,06,28,3.60
2012,05,19,06,29,3.60
2012,05,19,06,30,3.70
2012,05,19,06,31,3.70
2012,05,19,06,32,3.70
2012,05,19,06,34,3.70
2012,05,19,06,36,3.80
2012,05,19,06,38,3.90
2012,05,19,06,39,3.90
2012,05,19,06,41,4.10
2012,05,19,06,43,4.10
2012,05,19,06,45,4.20
2012,05,19,06,47,4.20
2012,05,19,06,48,4.30
2012,05,19,06,50,4.30
2012,05,19,06,51,4.40
2012,05,19,06,53,4.50
2012,05,19,06,54,4.60
2012,05,19,06,55,4.60
2012,05,19,06,57,4.70
2012,05,19,06,59,4.70
2012,05,19,07,00,4.70
2012,05,19,07,02,4.80
2012,05,19,07,04,4.80
2012,05,19,07,05,4.80
2012,05,19,07,06,4.80
2012,05,19,07,08,4.90
2012,05,19,07,09,5.00
2012,05,19,07,11,5.10
2012,05,19,07,13,5.20
2012,05,19,07,15,5.30
2012,05,19,07,17,5.40
2012,05,19,07,18,5.50
2012,05,19,07,19,5.60
2012,05,19,07,20,5.70
2012,05,19,07,21,5.70
2012,05,19,07,23,5.80
2012,05,19,07,24,5.80
2012,05,19,07,26,5.80
2012,05,19,07,27,5.80
2012,05,19,07,28,5.80
2012,05,19,07,30,5.70
2012,05,19,07,32,5.70
2012,05,19,07,33,5.70
2012,05,19,07,34,5.80
2012,05,19,07,35,5.80
2012,05,19,07,36,5.80
2012,05,19,07,37,5.80
2012,05,19,07,38,5.80
2012,05,19,07,39,5.80
2012,05,19,07,40,5.90
2012,05,19,07,41,5.90
2012,05,19,07,43,5.90
2012,05,19,07,44,6.00
2012,05,19,07,46,6.10
2012,05,19,07,47,6.20
2012,05,19,07,48,6.20
2012,05,19,07,49,6.20
2012,05,19,07,50,6.30
2012,05,19,07,51,6.30
2012,05,19,07,52,6.30
2012,05,19,07,53,6.40
2012,05,19,07,54,6.40
2012,05,19,07,55,6.40
2012,05,19,07,56,6.50
2012,05,19,07,57,6.50
2012,05,19,07,58,6.60
2012,05,19,07,59,6.60
2012,05,19,08,00,6.60
2012,05,19,08,01,6.60
2012,05,19,08,02,6.60
2012,05,19,08,03,6.60
2012,05,19,08,04,6.70
2012,05,19,08,05,6.60
2012,05,19,08,06,6.70
2012,05,19,08,07,6.70
2012,05,19,08,08,6.70
2012,05,19,08,09,6.70
2012,05,19,08,10,6.70
2012,05,19,08,11,6.70
2012,05,19,08,12,6.80
2012,05,19,08,13,6.80
2012,05,19,08,14,6.90
2012,05,19,08,15,7.00
2012,05,19,08,16,7.10
2012,05,19,08,17,7.10
2012,05,19,08,18,7.10
2012,05,19,08,19,7.10
2012,05,19,08,20,7.20
2012,05,19,08,22,7.20
2012,05,19,08,23,7.20
2012,05,19,08,24,7.20
2012,05,19,08,25,7.20
2012,05,19,08,26,7.20
2012,05,19,08,27,7.20
2012,05,19,08,28,7.20
2012,05,19,08,29,7.20
2012,05,19,08,30,7.20
2012,05,19,08,31,7.30
2012,05,19,08,32,7.30
2012,05,19,08,33,7.40
2012,05,19,08,34,7.50
2012,05,19,08,35,7.50
2012,05,19,08,36,7.60
2012,05,19,08,37,7.60
2012,05,19,08,38,7.60
2012,05,19,08,40,7.70
2012,05,19,08,41,7.70
2012,05,19,08,42,7.70
2012,05,19,08,43,7.80
2012,05,19,08,44,7.80
2012,05,19,08,45,7.80
2012,05,19,08,46,7.80
2012,05,19,08,47,7.80
2012,05,19,08,48,7.90
2012,05,19,08,49,7.90
2012,05,19,08,50,7.90
2012,05,19,08,51,7.90
2012,05,19,08,52,8.00
2012,05,19,08,53,8.10
2012,05,19,08,54,8.10
2012,05,19,08,55,8.10
2012,05,19,08,56,8.20
2012,05,19,08,58,8.30
2012,05,19,08,59,8.30
2012,05,19,09,01,8.40
2012,05,19,09,02,8.50
2012,05,19,09,03,8.60
2012,05,19,09,04,8.60
2012,05,19,09,05,8.60
2012,05,19,09,06,8.60
2012,05,19,09,07,8.60
2012,05,19,09,08,8.60
2012,05,19,09,09,8.60
2012,05,19,09,10,8.60
2012,05,19,09,11,8.60
2012,05,19,09,12,8.60
2012,05,19,09,13,8.70
2012,05,19,09,14,8.70
2012,05,19,09,15,8.70
2012,05,19,09,16,8.70
2012,05,19,09,17,8.80
2012,05,19,09,18,8.80
2012,05,19,09,19,8.80
2012,05,19,09,20,8.90
2012,05,19,09,21,9.00
2012,05,19,09,22,9.10
2012,05,19,09,23,9.20
2012,05,19,09,25,9.30
2012,05,19,09,30,9.60
2012,05,19,09,31,9.70
2012,05,19,09,32,9.70
2012,05,19,09,33,9.70
2012,05,19,09,34,9.70
2012,05,19,09,35,9.80
2012,05,19,09,36,9.80
2012,05,19,09,40,9.90
2012,05,19,09,44,10.00
2012,05,19,09,45,10.00
2012,05,19,09,46,10.00
2012,05,19,09,47,10.10
2012,05,19,09,48,10.00
2012,05,19,09,49,10.10
2012,05,19,09,50,10.10
2012,05,19,09,51,10.10
2012,05,19,09,52,10.20
2012,05,19,09,53,10.20
2012,05,19,09,54,10.20
2012,05,19,09,55,10.30
2012,05,19,09,56,10.30
2012,05,19,09,57,10.40
2012,05,19,09,58,10.50
2012,05,19,09,59,10.60
2012,05,19,10,00,10.60
2012,05,19,10,01,10.70
2012,05,19,10,02,10.70
2012,05,19,10,03,10.80
2012,05,19,10,04,10.90
2012,05,19,10,05,10.90
2012,05,19,10,06,11.10
2012,05,19,10,07,11.20
2012,05,19,10,08,11.30
2012,05,19,10,09,11.40
2012,05,19,10,10,11.50
2012,05,19,10,11,11.60
2012,05,19,10,12,11.70
2012,05,19,10,13,11.80
2012,05,19,10,14,11.90
2012,05,19,10,15,12.00
2012,05,19,10,16,12.10
2012,05,19,10,17,12.20
2012,05,19,10,18,12.20
2012,05,19,10,19,12.20
2012,05,19,10,20,12.30
2012,05,19,10,21,12.40
2012,05,19,10,22,12.50
2012,05,19,10,23,12.60
2012,05,19,10,24,12.80
2012,05,19,10,25,12.80
2012,05,19,10,26,12.90
2012,05,19,10,27,13.00
2012,05,19,10,28,13.10
2012,05,19,10,29,13.20
2012,05,19,10,30,13.20
2012,05,19,10,31,13.20
2012,05,19,10,32,13.20
2012,05,19,10,33,13.30
2012,05,19,10,34,13.30
2012,05,19,10,36,13.20
2012,05,19,10,37,13.20
2012,05,19,10,38,13.20
2012,05,19,10,39,13.10
2012,05,19,10,40,13.10
2012,05,19,10,41,13.00
2012,05,19,10,42,12.90
2012,05,19,10,43,12.80
2012,05,19,10,44,12.80
2012,05,19,10,45,12.80
2012,05,19,10,46,12.80
2012,05,19,10,47,12.80
2012,05,19,10,48,12.80
2012,05,19,10,49,12.90
2012,05,19,10,50,12.90
2012,05,19,10,51,12.90
2012,05,19,10,52,12.90
2012,05,19,10,53,12.90
2012,05,19,10,54,12.90
2012,05,19,10,55,13.00
2012,05,19,10,56,13.00
2012,05,19,10,57,13.00
2012,05,19,10,58,13.10
2012,05,19,10,59,13.20
2012,05,19,11,00,13.30
2012,05,19,11,01,13.30
2012,05,19,11,02,13.40
2012,05,19,11,03,13.50
2012,05,19,11,04,13.60
2012,05,19,11,05,13.60
2012,05,19,14,40,18.70
2012,05,19,14,44,18.80
2012,05,19,14,45,18.80
2012,05,19,14,46,18.80
2012,05,19,14,47,18.80
2012,05,19,14,48,18.70
2012,05,19,14,50,18.70
2012,05,19,14,52,18.70
2012,05,19,14,53,18.70
2012,05,19,14,55,18.60
2012,05,19,14,56,18.60
2012,05,19,14,58,18.40
2012,05,19,14,59,18.40
2012,05,19,15,00,18.40
2012,05,19,15,01,18.40
2012,05,19,15,02,18.30
2012,05,19,15,03,18.30
2012,05,19,15,04,18.30
2012,05,19,15,05,18.30
2012,05,19,15,06,18.30
2012,05,19,15,07,18.40
2012,05,19,15,08,18.40
2012,05,19,15,09,18.40
2012,05,19,15,10,18.40
2012,05,19,15,11,18.40
2012,05,19,15,12,18.40
2012,05,19,15,14,18.40
2012,05,19,15,16,18.40
2012,05,19,15,18,18.40
2012,05,19,15,19,18.40
2012,05,19,15,20,18.40
2012,05,19,15,21,18.40
2012,05,19,15,23,18.30
2012,05,19,15,25,18.30
2012,05,19,15,27,18.30
2012,05,19,15,29,18.30
2012,05,19,15,30,18.40
2012,05,19,15,31,18.40
2012,05,19,15,32,18.40
2012,05,19,15,33,18.40
2012,05,19,15,34,18.50
2012,05,19,15,35,18.50
2012,05,19,15,37,18.60
2012,05,19,15,38,18.60
2012,05,19,15,40,18.60
2012,05,19,15,41,18.60
2012,05,19,15,42,18.70
2012,05,19,15,43,18.70
2012,05,19,15,44,18.70
2012,05,19,15,45,18.70
2012,05,19,15,47,18.70
2012,05,19,15,49,18.80
2012,05,19,15,50,18.80
2012,05,19,15,51,18.80
2012,05,19,15,52,18.90
2012,05,19,15,53,18.90
2012,05,19,15,54,18.90
2012,05,19,15,55,18.80
2012,05,19,15,56,18.80
2012,05,19,15,58,18.80
2012,05,19,15,59,18.80
2012,05,19,16,00,18.80
2012,05,19,16,01,18.80
2012,05,19,16,02,18.80
2012,05,19,16,03,18.80
2012,05,19,16,04,18.80
2012,05,19,16,05,18.80
2012,05,19,16,06,18.80
2012,05,19,16,07,18.80
2012,05,19,16,08,18.80
2012,05,19,16,09,18.90
2012,05,19,16,10,18.90
2012,05,19,16,11,18.90
2012,05,19,16,12,18.90
2012,05,19,16,13,18.90
2012,05,19,16,14,18.90
2012,05,19,16,15,18.90
2012,05,19,16,16,19.00
2012,05,19,16,17,19.00
2012,05,19,16,18,19.00
2012,05,19,16,19,19.00
2012,05,19,16,20,18.90
2012,05,19,16,21,18.90
2012,05,19,16,22,18.80
2012,05,19,16,24,18.70
2012,05,19,16,25,18.70
2012,05,19,16,26,18.70
2012,05,19,16,27,18.70
2012,05,19,16,28,18.70
2012,05,19,16,29,18.70
2012,05,19,16,30,18.70
2012,05,19,16,31,18.60
2012,05,19,16,32,18.60
2012,05,19,16,33,18.60
2012,05,19,16,34,18.60
2012,05,19,16,35,18.60
2012,05,19,16,36,18.60
2012,05,19,16,37,18.70
2012,05,19,16,38,18.70
2012,05,19,16,39,18.70
2012,05,19,16,40,18.80
2012,05,19,16,41,18.80
2012,05,19,16,42,18.80
2012,05,19,16,43,18.80
2012,05,19,16,44,18.90
2012,05,19,16,45,18.90
2012,05,19,16,46,18.90
2012,05,19,16,47,18.90
2012,05,19,16,48,18.90
2012,05,19,16,49,18.90
2012,05,19,16,50,18.90
2012,05,19,16,51,18.90
2012,05,19,16,52,18.90
2012,05,19,16,53,18.90
2012,05,19,16,54,18.90
2012,05,19,16,55,18.90
2012,05,19,16,56,18.90
2012,05,19,16,57,18.90
2012,05,19,16,58,18.90
2012,05,19,16,59,18.90
2012,05,19,17,00,18.90
2012,05,19,17,01,18.90
2012,05,19,17,02,18.90
2012,05,19,17,03,18.90
2012,05,19,17,04,18.80
2012,05,19,17,05,18.80
2012,05,19,17,07,18.80
2012,05,19,17,08,18.80
2012,05,19,17,09,18.80
2012,05,19,17,10,18.80
2012,05,19,17,12,18.80
2012,05,19,17,13,18.80
2012,05,19,17,15,18.80
2012,05,19,17,16,18.80
2012,05,19,17,17,18.80
2012,05,19,17,18,18.80
2012,05,19,17,19,18.70
2012,05,19,17,20,18.70
2012,05,19,17,21,18.70
2012,05,19,17,22,18.70
2012,05,19,17,23,18.70
2012,05,19,17,24,18.70
2012,05,19,17,25,18.70
2012,05,19,17,26,18.70
2012,05,19,17,27,18.60
2012,05,19,17,28,18.70
2012,05,19,17,29,18.60
2012,05,19,17,30,18.60
2012,05,19,17,31,18.60
2012,05,19,17,33,18.60
2012,05,19,17,34,18.60
2012,05,19,17,35,18.60
2012,05,19,17,36,18.60
2012,05,19,17,37,18.70
2012,05,19,17,38,18.70
2012,05,19,17,39,18.70
2012,05,19,17,40,18.70
2012,05,19,17,41,18.70
2012,05,19,17,42,18.70
2012,05,19,17,43,18.70
2012,05,19,17,44,18.70
2012,05,19,17,45,18.70
2012,05,19,17,46,18.60
2012,05,19,17,47,18.60
2012,05,19,17,48,18.60
2012,05,19,17,49,18.60
2012,05,19,17,50,18.60
2012,05,19,17,51,18.40
2012,05,19,17,52,18.40
2012,05,19,17,53,18.40
2012,05,19,17,54,18.30
2012,05,19,17,55,18.30
2012,05,19,17,57,18.20
2012,05,19,17,58,18.20
2012,05,19,17,59,18.20
2012,05,19,18,00,18.20
2012,05,19,18,01,18.10
2012,05,19,18,02,18.00
2012,05,19,18,03,17.90
2012,05,19,18,04,17.90
2012,05,19,18,05,17.90
2012,05,19,18,06,17.90
2012,05,19,18,07,17.90
2012,05,19,18,08,17.90
2012,05,19,18,09,17.80
2012,05,19,18,10,17.80
2012,05,19,18,11,17.80
2012,05,19,18,13,17.80
2012,05,19,18,14,17.70
2012,05,19,18,15,17.70
2012,05,19,18,16,17.70
2012,05,19,18,17,17.70
2012,05,19,18,18,17.60
2012,05,19,18,19,17.60
2012,05,19,18,20,17.60
2012,05,19,18,21,17.50
2012,05,19,18,22,17.40
2012,05,19,18,23,17.40
2012,05,19,18,24,17.40
2012,05,19,18,25,17.40
2012,05,19,18,26,17.40
2012,05,19,18,27,17.40
2012,05,19,18,28,17.40
2012,05,19,18,29,17.40
2012,05,19,18,30,17.40
2012,05,19,18,31,17.40
2012,05,19,18,32,17.40
2012,05,19,18,33,17.40
2012,05,19,18,35,17.50
2012,05,19,18,36,17.50
2012,05,19,18,37,17.50
2012,05,19,18,38,17.40
2012,05,19,18,39,17.30
2012,05,19,18,40,17.30
2012,05,19,18,41,17.20
2012,05,19,18,42,17.20
2012,05,19,18,43,17.20
2012,05,19,18,45,17.20
2012,05,19,18,46,17.20
2012,05,19,18,47,17.20
2012,05,19,18,48,17.10
2012,05,19,18,50,17.10
2012,05,19,18,51,17.10
2012,05,19,18,52,17.10
2012,05,19,18,53,17.10
2012,05,19,18,54,17.10
2012,05,19,18,55,17.10
2012,05,19,18,56,17.10
2012,05,19,18,57,17.10
2012,05,19,18,58,17.10
2012,05,19,18,59,17.10
2012,05,19,19,00,17.10
2012,05,19,19,01,17.10
2012,05,19,19,02,17.10
2012,05,19,19,04,17.00
2012,05,19,19,05,16.90
2012,05,19,19,06,16.90
2012,05,19,19,07,16.90
2012,05,19,19,08,16.90
2012,05,19,19,10,16.80
2012,05,19,19,11,16.80
2012,05,19,19,12,16.70
2012,05,19,19,13,16.70
2012,05,19,19,14,16.70
2012,05,19,19,15,16.70
2012,05,19,19,17,16.60
2012,05,19,19,18,16.60
2012,05,19,19,19,16.60
2012,05,19,19,20,16.60
2012,05,19,19,21,16.60
2012,05,19,19,22,16.60
2012,05,19,19,23,16.60
2012,05,19,19,24,16.70
2012,05,19,19,25,16.60
2012,05,19,19,26,16.60
2012,05,19,19,27,16.60
2012,05,19,19,28,16.60
2012,05,19,19,29,16.60
2012,05,19,19,30,16.60
2012,05,19,19,31,16.70
2012,05,19,19,32,16.70
2012,05,19,19,33,16.70
2012,05,19,19,34,16.70
2012,05,19,19,35,16.70
2012,05,19,19,36,16.70
2012,05,19,19,37,16.70
2012,05,19,19,38,16.60
2012,05,19,19,39,16.60
2012,05,19,19,40,16.60
2012,05,19,19,42,16.60
2012,05,19,19,43,16.60
2012,05,19,19,44,16.60
2012,05,19,19,45,16.60
2012,05,19,19,46,16.60
2012,05,19,19,47,16.60
2012,05,19,19,48,16.60
2012,05,19,19,49,16.60
2012,05,19,19,50,16.60
2012,05,19,19,51,16.60
2012,05,19,19,52,16.60
2012,05,19,19,53,16.60
2012,05,19,19,54,16.60
2012,05,19,19,55,16.50
2012,05,19,19,56,16.50
2012,05,19,19,57,16.50
2012,05,19,19,58,16.40
2012,05,19,19,59,16.40
2012,05,19,20,00,16.40
2012,05,19,20,01,16.40
2012,05,19,20,02,16.40
2012,05,19,20,03,16.40
2012,05,19,20,04,16.40
2012,05,19,20,05,16.30
2012,05,19,20,07,16.30
2012,05,19,20,08,16.40
2012,05,19,20,09,16.40
2012,05,19,20,10,16.40
2012,05,19,20,11,16.30
2012,05,19,20,12,16.30
2012,05,19,20,13,16.30
2012,05,19,20,14,16.30
2012,05,19,20,15,16.30
2012,05,19,20,16,16.20
2012,05,19,20,17,16.20
2012,05,19,20,18,16.10
2012,05,19,20,19,16.10
2012,05,19,20,20,16.10
2012,05,19,20,21,16.00
2012,05,19,20,22,16.00
2012,05,19,20,23,15.90
2012,05,19,20,25,15.90
2012,05,19,20,26,15.80
2012,05,19,20,27,15.80
2012,05,19,20,28,15.80
2012,05,19,20,29,15.80
2012,05,19,20,30,15.70
2012,05,19,20,32,15.70
2012,05,19,20,33,15.70
2012,05,19,20,34,15.60
2012,05,19,20,35,15.60
2012,05,19,20,36,15.60
2012,05,19,20,37,15.60
2012,05,19,20,38,15.60
2012,05,19,20,39,15.60
2012,05,19,20,40,15.50
2012,05,19,20,41,15.50
2012,05,19,20,42,15.40
2012,05,19,20,43,15.40
2012,05,19,20,44,15.40
2012,05,19,20,45,15.40
2012,05,19,20,46,15.40
2012,05,19,20,47,15.40
2012,05,19,20,48,15.30
2012,05,19,20,49,15.30
2012,05,19,20,50,15.30
2012,05,19,20,51,15.30
2012,05,19,20,52,15.30
2012,05,19,20,53,15.20
2012,05,19,20,54,15.20
2012,05,19,20,55,15.20
2012,05,19,20,59,15.00
2012,05,19,21,00,15.00
2012,05,19,21,01,15.00
2012,05,19,21,03,15.00
2012,05,19,21,05,15.00
2012,05,19,21,07,15.00
2012,05,19,21,08,15.00
2012,05,19,21,09,14.90
2012,05,19,21,10,14.90
2012,05,19,21,11,14.90
2012,05,19,21,13,14.80
2012,05,19,21,14,14.80
2012,05,19,21,15,14.80
2012,05,19,21,16,14.80
2012,05,19,21,17,14.80
2012,05,19,21,18,14.80
2012,05,19,21,19,14.80
2012,05,19,21,21,14.80
2012,05,19,21,23,14.80
2012,05,19,21,24,14.80
2012,05,19,21,25,14.70
2012,05,19,21,27,14.70
2012,05,19,21,28,14.70
2012,05,19,21,29,14.70
2012,05,19,21,30,14.70
2012,05,19,21,31,14.70
2012,05,19,21,32,14.70
2012,05,19,21,33,14.70
2012,05,19,21,34,14.70
2012,05,19,21,35,14.70
2012,05,19,21,36,14.70
2012,05,19,21,37,14.60
2012,05,19,21,38,14.60
2012,05,19,21,39,14.60
2012,05,19,21,40,14.60
2012,05,19,21,41,14.60
2012,05,19,21,42,14.60
2012,05,19,21,43,14.50
2012,05,19,21,44,14.50
2012,05,19,21,45,14.50
2012,05,19,21,46,14.40
2012,05,19,21,47,14.40
2012,05,19,21,48,14.40
2012,05,19,21,49,14.40
2012,05,19,21,50,14.40
2012,05,19,21,51,14.40
2012,05,19,21,52,14.30
2012,05,19,21,53,14.30
2012,05,19,21,54,14.30
2012,05,19,21,55,14.30
2012,05,19,21,56,14.30
2012,05,19,21,57,14.20
2012,05,19,21,59,14.20
2012,05,19,22,00,14.20
2012,05,19,22,02,14.20
2012,05,19,22,04,14.10
2012,05,19,22,05,14.10
2012,05,19,22,06,14.10
2012,05,19,22,07,14.00
2012,05,19,22,08,14.00
2012,05,19,22,09,14.00
2012,05,19,22,10,14.00
2012,05,19,22,11,13.90
2012,05,19,22,12,13.90
2012,05,19,22,13,13.90
2012,05,19,22,14,13.90
2012,05,19,22,15,13.90
2012,05,19,22,16,13.80
2012,05,19,22,17,13.80
2012,05,19,22,18,13.80
2012,05,19,22,19,13.80
2012,05,19,22,20,13.80
2012,05,19,22,21,13.80
2012,05,19,22,22,13.80
2012,05,19,22,23,13.70
2012,05,19,22,24,13.70
2012,05,19,22,25,13.70
2012,05,19,22,26,13.70
2012,05,19,22,27,13.70
2012,05,19,22,28,13.70
2012,05,19,22,29,13.70
2012,05,19,22,30,13.70
2012,05,19,22,31,13.70
2012,05,19,22,32,13.70
2012,05,19,22,33,13.70
2012,05,19,22,34,13.60
2012,05,19,22,35,13.60
2012,05,19,22,36,13.60
2012,05,19,22,37,13.60
2012,05,19,22,38,13.60
2012,05,19,22,39,13.60
2012,05,19,22,40,13.60
2012,05,19,22,41,13.60
2012,05,19,22,42,13.60
2012,05,19,22,43,13.60
2012,05,19,22,44,13.60
2012,05,19,22,45,13.60
2012,05,19,22,46,13.60
2012,05,19,22,47,13.60
2012,05,19,22,49,13.50
2012,05,19,22,50,13.50
2012,05,19,22,51,13.50
2012,05,19,22,52,13.50
2012,05,19,22,53,13.50
2012,05,19,22,54,13.50
2012,05,19,22,55,13.50
2012,05,19,22,56,13.40
2012,05,19,22,58,13.40
2012,05,19,22,59,13.40
2012,05,19,23,00,13.40
2012,05,19,23,01,13.40
2012,05,19,23,02,13.40
2012,05,19,23,03,13.40
2012,05,19,23,05,13.40
2012,05,19,23,06,13.30
2012,05,19,23,07,13.30
2012,05,19,23,08,13.30
2012,05,19,23,09,13.30
2012,05,19,23,10,13.30
2012,05,19,23,11,13.30
2012,05,19,23,12,13.30
2012,05,19,23,13,13.30
2012,05,19,23,14,13.20
2012,05,19,23,15,13.20
2012,05,19,23,16,13.20
2012,05,19,23,17,13.20
2012,05,19,23,18,13.20
2012,05,19,23,19,13.20
2012,05,19,23,20,13.20
2012,05,19,23,21,13.20
2012,05,19,23,22,13.20
2012,05,19,23,23,13.20
2012,05,19,23,24,13.20
2012,05,19,23,25,13.20
2012,05,19,23,26,13.20
2012,05,19,23,27,13.20
2012,05,19,23,29,13.20
2012,05,19,23,30,13.20
2012,05,19,23,31,13.20
2012,05,19,23,32,13.10
2012,05,19,23,33,13.10
2012,05,19,23,34,13.10
2012,05,19,23,35,13.10
2012,05,19,23,36,13.10
2012,05,19,23,37,13.10
2012,05,19,23,38,13.10
2012,05,19,23,39,13.00
2012,05,19,23,40,13.00
2012,05,19,23,41,13.00
2012,05,19,23,42,13.00
2012,05,19,23,43,13.00
2012,05,19,23,44,13.00
2012,05,19,23,45,12.90
2012,05,19,23,46,12.90
2012,05,19,23,47,12.90
2012,05,19,23,48,12.90
2012,05,19,23,49,12.90
2012,05,19,23,50,12.90